Regional Weather Roundup
Issued by NWS

Home | Current Version | Previous Version | Graphics & Text | Print | Product List | Glossary On
Versions: 1 2 3 4 5 6 7 8 9 10 11 12 13 14 15 16 17 18 19 20 21 22 23 24 25 26 27 28 29 30 31 32 33 34 35 36 37 38 39 40 41 42 43 44 45 46 47 48 49 50
000
ASUS45 KCYS 270810
RWRWY

WYOMING REGIONAL WEATHER ROUNDUP
NATIONAL WEATHER SERVICE CHEYENNE WY
100 AM MST THU NOV 27 2014

NOTE:  "FAIR" INDICATES FEW OR NO CLOUDS BELOW 12,000 FEET
WITH NO SIGNIFICANT WEATHER AND/OR OBSTRUCTIONS TO VISIBILITY.

WYZ001-270900-
YELLOWSTONE NATIONAL PARK

CITY           SKY/WX    TMP DP  RH WIND       PRES   REMARKS
LK YELLOWSTONE   N/A     32  26  78 VRB5      30.27S WCI  27
W YELLOWSTONE  NOT AVBL

$$
WYZ002>013-054>058-071-098>099-270900-
NORTHERN WYOMING

CITY           SKY/WX    TMP DP  RH WIND       PRES   REMARKS
JACKSON        CLOUDY    37  30  75 SW9       30.27S WCI  31
CODY           CLOUDY    21  21 100 CALM      30.09F VSB 1/4
GREYBULL       FOG       22  21  96 CALM      30.16F VSB 1/2
WORLAND        CLOUDY    21  18  88 S7        30.15S WCI  12
SHERIDAN       CLOUDY    22  20  92 SW6       30.07F FOG     WCI  14
BUFFALO        PTCLDY    22  16  78 SW8       30.07F WCI  12
GILLETTE       PTCLDY    22  19  89 S7        30.11F WCI  13
HULETT           N/A    N/A N/A N/A MISG        N/A
NEWCASTLE      PTSUNNY   28  23  80 SE6       30.19F WCI  22

$$
WYZ014>020-022>026-101>103-270900-
CENTRAL WYOMING

CITY           SKY/WX    TMP DP  RH WIND       PRES   REMARKS
BIG PINEY      PTCLDY   N/A N/A N/A CALM      30.34S
PINEDALE       MOSUNNY   18  18 100 CALM      30.34F
DUBOIS         FAIR      36  23  60 W20G25    30.22F WCI  25
LANDER         PTCLDY    30  23  75 NW10      30.17F WCI  21
RIVERTON       PTCLDY    33  26  75 W10       30.19S WCI  25
CASPER         CLOUDY    39  28  64 SW16      30.17F WCI  30
DOUGLAS        CLOUDY    20  17  88 SE3       30.18F

$$
WYZ021-027>030-104>119-270900-
SOUTHERN WYOMING

CITY           SKY/WX    TMP DP  RH WIND       PRES   REMARKS
EVANSTON       PTCLDY    34  22  61 SW16      30.37F WCI  24
FORT BRIDGER   FAIR      39  22  50 W17G25    30.37F WCI  30
ROCK SPRINGS   CLEAR     36  21  54 S7        30.35F WCI  30
DIXON          FAIR      34  26  71 NW3       30.43S
RAWLINS        CLOUDY    39  23  52 W29G43    30.28F WCI  27
SARATOGA       FAIR      39  21  48 SW17G25   30.32S WCI  30
LARAMIE        PTCLDY    34  23  64 SW10      30.28S WCI  26
CHEYENNE       MOCLDY    43  25  49 W12       30.22R
TORRINGTON     FOG       21  20  96 N3        30.21F VSB 1/2
PINE BLUFFS    FAIR      19  18  93 SW7       30.23S WCI  10

$$



USA.gov is the U.S. government's official web portal to all federal, state and local government web resources and services.